Location: Unspecified
(20.0000°S, 0.0000°E)
Time: 18:56:27
(UTC+00:00)

NUDT-PHONESAT - Pass Details

Date: 21 July 2019
Orbit: 488 x 505 km, 97.4° (Epoch: 17 August)

Event Time Altitude Azimuth Distance (km) Brightness Sun altitude
Rises 19:15:58 0° 200° (SSW) 2,614 ? -22.5°
Reaches altitude 10° 19:19:40 10° 239° (WSW) 1,714 ? -23.3°
Maximum altitude 19:20:31 11° 253° (WSW) 1,668 ? -23.5°
Drops below altitude 10° 19:21:23 10° 266° (W) 1,707 ? -23.7°
Sets 19:25:02 0° 305° (NW) 2,573 ? -24.5°
